Time,TemperatureF,DewpointF,PressureIn,WindDirection,WindDirectionDegrees,WindSpeedMPH,WindSpeedGustMPH,Humidity,HourlyPrecipIn,Conditions,Clouds,dailyrainin,SoftwareType,DateUTC
2013-01-22 00:00:00,12.2,0.6,29.90,WNW,293,10.5,16.3,59,0.00,,,0.00,WUHU216HW,2013-01-22 05:00:00,
2013-01-22 00:06:00,12.2,0.6,29.90,NNW,338,12.3,16.3,59,0.00,,,0.00,WUHU216HW,2013-01-22 05:06:00,
2013-01-22 00:11:00,12.1,0.4,29.90,NW,315,10.1,15.2,59,0.00,,,0.00,WUHU216HW,2013-01-22 05:11:00,
2013-01-22 00:16:00,11.9,0.2,29.90,NW,315,6.9,12.8,59,0.00,,,0.00,WUHU216HW,2013-01-22 05:16:00,
2013-01-22 00:21:00,11.9,0.2,29.90,NW,315,5.6,11.9,59,0.00,,,0.00,WUHU216HW,2013-01-22 05:21:00,
2013-01-22 00:26:00,11.7,-0.4,29.90,NW,315,11.2,15.0,58,0.00,,,0.00,WUHU216HW,2013-01-22 05:26:00,
2013-01-22 00:31:00,11.7,0.0,29.90,NW,315,7.4,15.0,59,0.00,,,0.00,WUHU216HW,2013-01-22 05:31:00,
2013-01-22 00:36:00,11.5,-0.5,29.90,NW,315,11.6,13.4,58,0.00,,,0.00,WUHU216HW,2013-01-22 05:36:00,
2013-01-22 00:41:00,11.5,-0.5,29.89,NW,315,8.5,14.5,58,0.00,,,0.00,WUHU216HW,2013-01-22 05:41:00,
2013-01-22 00:46:00,11.5,-0.5,29.89,WNW,293,7.8,14.5,58,0.00,,,0.00,WUHU216HW,2013-01-22 05:46:00,
2013-01-22 00:51:00,11.3,-0.6,29.90,SW,225,11.2,11.6,58,0.00,,,0.00,WUHU216HW,2013-01-22 05:51:00,
2013-01-22 00:56:00,11.3,-1.1,29.90,NW,315,7.6,15.9,57,0.00,,,0.00,WUHU216HW,2013-01-22 05:56:00,
2013-01-22 01:01:00,11.3,-0.6,29.90,North,0,6.5,15.9,58,0.00,,,0.00,WUHU216HW,2013-01-22 06:01:00,
2013-01-22 01:06:00,11.2,-0.8,29.90,West,270,15.7,15.7,58,0.00,,,0.00,WUHU216HW,2013-01-22 06:06:00,
2013-01-22 01:11:00,11.2,-0.8,29.90,NNW,338,9.2,15.7,58,0.00,,,0.00,WUHU216HW,2013-01-22 06:11:00,
2013-01-22 01:16:00,11.0,-1.0,29.90,NW,315,6.9,15.0,58,0.00,,,0.00,WUHU216HW,2013-01-22 06:16:00,
2013-01-22 01:21:00,11.0,-1.0,29.91,North,0,5.1,15.0,58,0.00,,,0.00,WUHU216HW,2013-01-22 06:21:00,
2013-01-22 01:26:00,10.8,-0.8,29.91,NNW,338,4.9,13.2,59,0.00,,,0.00,WUHU216HW,2013-01-22 06:26:00,
2013-01-22 01:31:00,10.6,-0.9,29.91,NW,315,9.2,13.2,59,0.00,,,0.00,WUHU216HW,2013-01-22 06:31:00,
2013-01-22 01:36:00,10.6,-0.9,29.91,NW,315,8.1,13.2,59,0.00,,,0.00,WUHU216HW,2013-01-22 06:36:00,
2013-01-22 01:41:00,10.4,-0.7,29.91,West,270,4.5,14.3,60,0.00,,,0.00,WUHU216HW,2013-01-22 06:41:00,
2013-01-22 01:46:00,10.4,-0.7,29.91,NW,315,12.8,14.3,60,0.00,,,0.00,WUHU216HW,2013-01-22 06:46:00,
2013-01-22 01:51:00,10.4,-0.7,29.91,WNW,293,4.3,14.3,60,0.00,,,0.00,WUHU216HW,2013-01-22 06:51:00,
2013-01-22 01:56:00,10.4,-0.7,29.91,WNW,293,8.9,14.3,60,0.00,,,0.00,WUHU216HW,2013-01-22 06:56:00,
2013-01-22 02:01:00,10.3,-0.5,29.91,NW,315,5.4,13.0,61,0.00,,,0.00,WUHU216HW,2013-01-22 07:01:00,
2013-01-22 02:06:00,10.1,-0.7,29.92,WNW,293,6.0,13.0,61,0.00,,,0.00,WUHU216HW,2013-01-22 07:06:00,
2013-01-22 02:11:00,10.1,-0.7,29.92,NW,315,6.3,11.9,61,0.00,,,0.00,WUHU216HW,2013-01-22 07:11:00,
2013-01-22 02:16:00,9.9,-0.9,29.92,NNW,338,6.7,11.6,61,0.00,,,0.00,WUHU216HW,2013-01-22 07:16:00,
2013-01-22 02:21:00,9.9,-0.9,29.92,NW,315,10.1,11.6,61,0.00,,,0.00,WUHU216HW,2013-01-22 07:21:00,
2013-01-22 02:26:00,9.7,-1.1,29.92,West,270,14.5,14.5,61,0.00,,,0.00,WUHU216HW,2013-01-22 07:26:00,
2013-01-22 02:31:00,9.7,-1.1,29.92,West,270,10.7,15.9,61,0.00,,,0.00,WUHU216HW,2013-01-22 07:31:00,
2013-01-22 02:36:00,9.7,-1.1,29.92,NW,315,8.1,15.9,61,0.00,,,0.00,WUHU216HW,2013-01-22 07:36:00,
2013-01-22 02:41:00,9.7,-1.1,29.93,NW,315,9.8,14.5,61,0.00,,,0.00,WUHU216HW,2013-01-22 07:41:00,
2013-01-22 02:46:00,9.7,-1.1,29.93,WNW,293,6.9,12.1,61,0.00,,,0.00,WUHU216HW,2013-01-22 07:46:00,
2013-01-22 02:51:00,9.5,-1.2,29.93,NNW,338,10.7,11.4,61,0.00,,,0.00,WUHU216HW,2013-01-22 07:51:00,
2013-01-22 02:56:00,9.5,-1.0,29.93,NNW,338,8.5,12.3,62,0.00,,,0.00,WUHU216HW,2013-01-22 07:56:00,
2013-01-22 03:01:00,9.5,-1.0,29.93,NNW,338,8.1,13.2,62,0.00,,,0.00,WUHU216HW,2013-01-22 08:01:00,
2013-01-22 03:06:00,9.4,-1.4,29.93,NW,315,4.9,13.2,61,0.00,,,0.00,WUHU216HW,2013-01-22 08:06:00,
2013-01-22 03:11:00,9.4,-1.4,29.93,WSW,248,10.1,15.7,61,0.00,,,0.00,WUHU216HW,2013-01-22 08:11:00,
2013-01-22 03:16:00,9.4,-1.4,29.93,WSW,248,5.4,15.7,61,0.00,,,0.00,WUHU216HW,2013-01-22 08:16:00,
2013-01-22 03:21:00,9.2,-1.6,29.93,WNW,293,7.6,12.1,61,0.00,,,0.00,WUHU216HW,2013-01-22 08:21:00,
2013-01-22 03:26:00,9.2,-1.6,29.93,NW,315,13.4,15.0,61,0.00,,,0.00,WUHU216HW,2013-01-22 08:26:00,
2013-01-22 03:31:00,9.2,-1.6,29.93,NNW,338,8.5,15.0,61,0.00,,,0.00,WUHU216HW,2013-01-22 08:31:00,
2013-01-22 03:36:00,9.2,-1.6,29.94,West,270,14.3,14.3,61,0.00,,,0.00,WUHU216HW,2013-01-22 08:36:00,
2013-01-22 03:41:00,9.0,-2.2,29.94,NW,315,12.8,14.3,60,0.00,,,0.00,WUHU216HW,2013-01-22 08:41:00,
2013-01-22 03:46:00,9.0,-2.2,29.94,NW,315,6.9,14.8,60,0.00,,,0.00,WUHU216HW,2013-01-22 08:46:00,
2013-01-22 03:51:00,8.8,-2.3,29.94,NNW,338,8.7,14.8,60,0.00,,,0.00,WUHU216HW,2013-01-22 08:51:00,
2013-01-22 03:56:00,8.6,-2.5,29.94,NW,315,12.8,13.2,60,0.00,,,0.00,WUHU216HW,2013-01-22 08:56:00,
2013-01-22 04:01:00,8.6,-2.5,29.94,North,0,7.6,13.0,60,0.00,,,0.00,WUHU216HW,2013-01-22 09:01:00,
2013-01-22 04:06:00,8.5,-2.7,29.94,ENE,68,6.7,14.3,60,0.00,,,0.00,WUHU216HW,2013-01-22 09:06:00,
2013-01-22 04:11:00,8.5,-2.7,29.94,NW,315,8.3,14.3,60,0.00,,,0.00,WUHU216HW,2013-01-22 09:11:00,
2013-01-22 04:16:00,8.3,-2.9,29.94,NNW,338,11.6,15.2,60,0.00,,,0.00,WUHU216HW,2013-01-22 09:16:00,
2013-01-22 04:21:00,8.3,-2.9,29.95,North,0,14.8,15.2,60,0.00,,,0.00,WUHU216HW,2013-01-22 09:21:00,
2013-01-22 04:26:00,8.3,-2.9,29.95,NW,315,14.1,14.8,60,0.00,,,0.00,WUHU216HW,2013-01-22 09:26:00,
2013-01-22 04:31:00,8.3,-2.9,29.95,NW,315,8.3,14.1,60,0.00,,,0.00,WUHU216HW,2013-01-22 09:31:00,
2013-01-22 04:36:00,8.1,-3.0,29.95,North,0,9.6,14.1,60,0.00,,,0.00,WUHU216HW,2013-01-22 09:36:00,
2013-01-22 04:41:00,7.9,-3.1,29.95,NNW,338,15.4,15.4,60,0.00,,,0.00,WUHU216HW,2013-01-22 09:41:00,
2013-01-22 04:46:00,7.9,-3.1,29.95,WNW,293,9.6,15.4,60,0.00,,,0.00,WUHU216HW,2013-01-22 09:46:00,
2013-01-22 04:51:00,7.7,-3.3,29.95,NW,315,12.8,15.4,60,0.00,,,0.00,WUHU216HW,2013-01-22 09:51:00,
2013-01-22 04:56:00,7.7,-3.3,29.95,WNW,293,12.3,16.6,60,0.00,,,0.00,WUHU216HW,2013-01-22 09:56:00,
2013-01-22 05:01:00,7.9,-3.1,29.95,NW,315,4.9,17.2,60,0.00,,,0.00,WUHU216HW,2013-01-22 10:01:00,
2013-01-22 05:06:00,7.7,-3.3,29.95,NNW,338,8.9,17.2,60,0.00,,,0.00,WUHU216HW,2013-01-22 10:06:00,
2013-01-22 05:11:00,7.6,-3.5,29.96,NW,315,6.3,14.5,60,0.00,,,0.00,WUHU216HW,2013-01-22 10:11:00,
2013-01-22 05:16:00,7.7,-3.3,29.96,West,270,11.2,21.5,60,0.00,,,0.00,WUHU216HW,2013-01-22 10:16:00,
2013-01-22 05:21:00,7.7,-3.3,29.96,NNW,338,9.2,21.5,60,0.00,,,0.00,WUHU216HW,2013-01-22 10:21:00,
2013-01-22 05:26:00,7.7,-3.3,29.96,NW,315,13.2,16.3,60,0.00,,,0.00,WUHU216HW,2013-01-22 10:26:00,
2013-01-22 05:31:00,7.7,-3.3,29.97,NW,315,7.2,16.3,60,0.00,,,0.00,WUHU216HW,2013-01-22 10:31:00,
2013-01-22 05:36:00,7.6,-3.5,29.97,NW,315,16.3,16.3,60,0.00,,,0.00,WUHU216HW,2013-01-22 10:36:00,
2013-01-22 05:41:00,7.6,-3.5,29.97,NNW,338,13.4,16.3,60,0.00,,,0.00,WUHU216HW,2013-01-22 10:41:00,
2013-01-22 05:46:00,7.6,-3.5,29.97,North,0,14.3,18.3,60,0.00,,,0.00,WUHU216HW,2013-01-22 10:46:00,
2013-01-22 05:51:00,7.6,-3.5,29.97,NNW,338,8.7,18.3,60,0.00,,,0.00,WUHU216HW,2013-01-22 10:51:00,
2013-01-22 05:56:00,7.6,-3.5,29.98,NW,315,5.1,14.8,60,0.00,,,0.00,WUHU216HW,2013-01-22 10:56:00,
2013-01-22 06:01:00,7.6,-3.5,29.98,NW,315,9.8,14.8,60,0.00,,,0.00,WUHU216HW,2013-01-22 11:01:00,
2013-01-22 06:06:00,7.6,-3.5,29.98,WNW,293,8.9,13.4,60,0.00,,,0.00,WUHU216HW,2013-01-22 11:06:00,
2013-01-22 06:11:00,7.6,-3.5,29.98,NW,315,8.5,15.0,60,0.00,,,0.00,WUHU216HW,2013-01-22 11:11:00,
2013-01-22 06:16:00,7.4,-3.7,29.98,NW,315,9.4,15.7,60,0.00,,,0.00,WUHU216HW,2013-01-22 11:16:00,
2013-01-22 06:21:00,7.4,-3.7,29.98,NW,315,10.5,14.3,60,0.00,,,0.00,WUHU216HW,2013-01-22 11:21:00,
2013-01-22 06:27:00,7.2,-3.8,29.98,NNW,338,6.9,15.7,60,0.00,,,0.00,WUHU216HW,2013-01-22 11:27:00,
2013-01-22 06:32:00,7.2,-3.8,29.98,NNW,338,11.0,15.7,60,0.00,,,0.00,WUHU216HW,2013-01-22 11:32:00,
2013-01-22 06:37:00,7.2,-3.8,29.99,NNW,338,8.9,13.4,60,0.00,,,0.00,WUHU216HW,2013-01-22 11:37:00,
2013-01-22 06:42:00,7.4,-3.7,29.99,SW,225,6.3,15.4,60,0.00,,,0.00,WUHU216HW,2013-01-22 11:42:00,
2013-01-22 06:47:00,7.4,-3.7,29.99,NNW,338,12.5,15.9,60,0.00,,,0.00,WUHU216HW,2013-01-22 11:47:00,
2013-01-22 06:52:00,7.4,-3.7,29.99,NW,315,10.3,16.1,60,0.00,,,0.00,WUHU216HW,2013-01-22 11:52:00,
2013-01-22 06:57:00,7.6,-3.5,29.99,North,0,7.6,16.1,60,0.00,,,0.00,WUHU216HW,2013-01-22 11:57:00,
2013-01-22 07:02:00,7.6,-3.5,29.99,North,0,15.7,15.7,60,0.00,,,0.00,WUHU216HW,2013-01-22 12:02:00,
2013-01-22 07:07:00,7.6,-3.5,30.00,NW,315,11.2,15.7,60,0.00,,,0.00,WUHU216HW,2013-01-22 12:07:00,
2013-01-22 07:12:00,7.6,-3.5,30.00,NW,315,9.8,15.7,60,0.00,,,0.00,WUHU216HW,2013-01-22 12:12:00,
2013-01-22 07:17:00,7.6,-3.5,30.00,NW,315,9.4,17.2,60,0.00,,,0.00,WUHU216HW,2013-01-22 12:17:00,
2013-01-22 07:22:00,7.6,-3.5,30.00,NW,315,15.0,17.2,60,0.00,,,0.00,WUHU216HW,2013-01-22 12:22:00,
2013-01-22 07:27:00,7.6,-3.5,30.00,NW,315,10.5,15.4,60,0.00,,,0.00,WUHU216HW,2013-01-22 12:27:00,
2013-01-22 07:32:00,7.6,-3.5,30.00,NW,315,10.7,15.7,60,0.00,,,0.00,WUHU216HW,2013-01-22 12:32:00,
2013-01-22 07:37:00,7.7,-3.3,30.00,NNW,338,4.0,15.7,60,0.00,,,0.00,WUHU216HW,2013-01-22 12:37:00,
2013-01-22 07:42:00,7.7,-3.3,30.00,WNW,293,8.7,15.4,60,0.00,,,0.00,WUHU216HW,2013-01-22 12:42:00,
2013-01-22 07:47:00,7.9,-3.1,30.00,NE,45,5.8,15.4,60,0.00,,,0.00,WUHU216HW,2013-01-22 12:47:00,
2013-01-22 07:52:00,7.9,-3.1,30.01,NW,315,7.4,15.0,60,0.00,,,0.00,WUHU216HW,2013-01-22 12:52:00,
2013-01-22 07:57:00,7.9,-3.1,30.01,NW,315,7.8,15.0,60,0.00,,,0.00,WUHU216HW,2013-01-22 12:57:00,
2013-01-22 08:02:00,7.9,-3.1,30.01,NNW,338,11.2,14.3,60,0.00,,,0.00,WUHU216HW,2013-01-22 13:02:00,
2013-01-22 08:07:00,7.9,-3.1,30.02,North,0,10.3,13.2,60,0.00,,,0.00,WUHU216HW,2013-01-22 13:07:00,
2013-01-22 08:12:00,7.9,-3.1,30.02,NW,315,9.8,13.4,60,0.00,,,0.00,WUHU216HW,2013-01-22 13:12:00,
2013-01-22 08:17:00,7.7,-3.3,30.02,NNW,338,12.1,13.4,60,0.00,,,0.00,WUHU216HW,2013-01-22 13:17:00,
2013-01-22 08:22:00,7.7,-3.3,30.02,WNW,293,12.1,13.2,60,0.00,,,0.00,WUHU216HW,2013-01-22 13:22:00,
2013-01-22 08:27:00,7.9,-3.1,30.02,NW,315,10.3,16.6,60,0.00,,,0.00,WUHU216HW,2013-01-22 13:27:00,
2013-01-22 08:32:00,7.9,-3.1,30.03,West,270,7.6,17.9,60,0.00,,,0.00,WUHU216HW,2013-01-22 13:32:00,
2013-01-22 08:37:00,7.9,-3.1,30.03,NNW,338,7.6,17.9,60,0.00,,,0.00,WUHU216HW,2013-01-22 13:37:00,
2013-01-22 08:42:00,7.9,-3.1,30.03,NW,315,11.2,14.1,60,0.00,,,0.00,WUHU216HW,2013-01-22 13:42:00,
2013-01-22 08:47:00,8.3,-2.5,30.03,WNW,293,10.7,14.1,61,0.00,,,0.00,WUHU216HW,2013-01-22 13:47:00,
2013-01-22 08:52:00,8.3,-2.5,30.04,NW,315,11.0,13.0,61,0.00,,,0.00,WUHU216HW,2013-01-22 13:52:00,
2013-01-22 08:57:00,8.5,-2.3,30.04,North,0,12.8,14.8,61,0.00,,,0.00,WUHU216HW,2013-01-22 13:57:00,
2013-01-22 09:03:00,8.5,-2.3,30.04,NNW,338,10.5,14.8,61,0.00,,,0.00,WUHU216HW,2013-01-22 14:03:00,
2013-01-22 09:08:00,8.6,-2.1,30.04,NW,315,10.1,12.8,61,0.00,,,0.00,WUHU216HW,2013-01-22 14:08:00,
2013-01-22 09:13:00,8.6,-2.1,30.04,NW,315,7.8,13.4,61,0.00,,,0.00,WUHU216HW,2013-01-22 14:13:00,
2013-01-22 09:18:00,8.6,-2.1,30.05,WNW,293,9.6,13.4,61,0.00,,,0.00,WUHU216HW,2013-01-22 14:18:00,
2013-01-22 09:23:00,8.6,-2.1,30.05,NNW,338,12.5,12.5,61,0.00,,,0.00,WUHU216HW,2013-01-22 14:23:00,
2013-01-22 09:28:00,8.6,-2.1,30.05,West,270,10.7,12.5,61,0.00,,,0.00,WUHU216HW,2013-01-22 14:28:00,
2013-01-22 09:33:00,8.8,-2.3,30.05,NNW,338,11.4,14.5,60,0.00,,,0.00,WUHU216HW,2013-01-22 14:33:00,
2013-01-22 09:38:00,8.8,-2.3,30.05,NW,315,6.5,14.5,60,0.00,,,0.00,WUHU216HW,2013-01-22 14:38:00,
2013-01-22 09:43:00,8.8,-2.3,30.05,West,270,8.1,20.1,60,0.00,,,0.00,WUHU216HW,2013-01-22 14:43:00,
2013-01-22 09:48:00,9.0,-2.2,30.06,NNW,338,10.3,20.1,60,0.00,,,0.00,WUHU216HW,2013-01-22 14:48:00,
2013-01-22 09:53:00,9.0,-2.2,30.06,West,270,7.8,13.6,60,0.00,,,0.00,WUHU216HW,2013-01-22 14:53:00,
2013-01-22 09:58:00,9.4,-1.8,30.06,NW,315,8.5,13.2,60,0.00,,,0.00,WUHU216HW,2013-01-22 14:58:00,
2013-01-22 10:03:00,9.7,-1.4,30.07,WNW,293,8.5,14.1,60,0.00,,,0.00,WUHU216HW,2013-01-22 15:03:00,
2013-01-22 10:08:00,9.7,-1.4,30.07,NW,315,5.8,14.5,60,0.00,,,0.00,WUHU216HW,2013-01-22 15:08:00,
2013-01-22 10:13:00,9.7,-1.4,30.07,West,270,11.4,17.2,60,0.00,,,0.00,WUHU216HW,2013-01-22 15:13:00,
2013-01-22 10:18:00,9.7,-1.4,30.07,NNW,338,4.3,17.2,60,0.00,,,0.00,WUHU216HW,2013-01-22 15:18:00,
2013-01-22 10:23:00,9.7,-1.4,30.07,WSW,248,6.9,11.4,60,0.00,,,0.00,WUHU216HW,2013-01-22 15:23:00,
2013-01-22 10:28:00,9.7,-1.4,30.08,NNW,338,12.3,12.3,60,0.00,,,0.00,WUHU216HW,2013-01-22 15:28:00,
2013-01-22 10:33:00,9.7,-1.4,30.08,WNW,293,8.7,14.1,60,0.00,,,0.00,WUHU216HW,2013-01-22 15:33:00,
2013-01-22 10:38:00,9.9,-1.6,30.07,WNW,293,11.2,14.1,59,0.00,,,0.00,WUHU216HW,2013-01-22 15:38:00,
2013-01-22 10:43:00,9.9,-1.6,30.08,NW,315,8.5,13.4,59,0.00,,,0.00,WUHU216HW,2013-01-22 15:43:00,
2013-01-22 10:48:00,9.9,-1.6,30.08,NNW,338,11.9,11.9,59,0.00,,,0.00,WUHU216HW,2013-01-22 15:48:00,
2013-01-22 10:53:00,10.1,-1.8,30.08,West,270,8.5,12.8,58,0.00,,,0.00,WUHU216HW,2013-01-22 15:53:00,
2013-01-22 10:58:00,10.3,-1.2,30.08,NW,315,9.2,12.8,59,0.00,,,0.00,WUHU216HW,2013-01-22 15:58:00,
2013-01-22 11:03:00,10.6,-0.9,30.08,NW,315,6.9,11.4,59,0.00,,,0.00,WUHU216HW,2013-01-22 16:03:00,
2013-01-22 11:08:00,11.0,-0.6,30.08,NW,315,14.1,14.1,59,0.00,,,0.00,WUHU216HW,2013-01-22 16:08:00,
2013-01-22 11:13:00,11.2,-0.4,30.08,NW,315,13.6,15.4,59,0.00,,,0.00,WUHU216HW,2013-01-22 16:13:00,
2013-01-22 11:18:00,11.0,-0.6,30.08,NNW,338,10.5,15.4,59,0.00,,,0.00,WUHU216HW,2013-01-22 16:18:00,
2013-01-22 11:23:00,11.2,-0.4,30.08,North,0,9.6,15.7,59,0.00,,,0.00,WUHU216HW,2013-01-22 16:23:00,
2013-01-22 11:28:00,11.2,-0.4,30.08,WNW,293,8.9,15.7,59,0.00,,,0.00,WUHU216HW,2013-01-22 16:28:00,
2013-01-22 11:33:00,11.2,-0.4,30.08,NW,315,7.6,12.5,59,0.00,,,0.00,WUHU216HW,2013-01-22 16:33:00,
2013-01-22 11:38:00,11.5,-0.1,30.08,NW,315,10.1,12.3,59,0.00,,,0.00,WUHU216HW,2013-01-22 16:38:00,
2013-01-22 11:43:00,11.9,0.2,30.08,NW,315,2.0,12.1,59,0.00,,,0.00,WUHU216HW,2013-01-22 16:43:00,
2013-01-22 11:48:00,12.1,0.4,30.07,NNW,338,12.1,15.7,59,0.00,,,0.00,WUHU216HW,2013-01-22 16:48:00,
2013-01-22 11:53:00,12.2,0.6,30.07,NW,315,9.8,15.7,59,0.00,,,0.00,WUHU216HW,2013-01-22 16:53:00,
2013-01-22 11:58:00,12.6,0.9,30.07,NW,315,3.6,14.3,59,0.00,,,0.00,WUHU216HW,2013-01-22 16:58:00,
2013-01-22 12:03:00,12.8,1.1,30.07,NNW,338,13.4,13.4,59,0.00,,,0.00,WUHU216HW,2013-01-22 17:03:00,
2013-01-22 12:08:00,12.8,0.6,30.07,West,270,11.0,17.4,58,0.00,,,0.00,WUHU216HW,2013-01-22 17:08:00,
2013-01-22 12:13:00,13.1,1.0,30.07,WNW,293,6.9,17.4,58,0.00,,,0.00,WUHU216HW,2013-01-22 17:13:00,
2013-01-22 12:18:00,13.1,1.0,30.07,NNW,338,9.2,16.3,58,0.00,,,0.00,WUHU216HW,2013-01-22 17:18:00,
2013-01-22 12:23:00,13.1,1.0,30.07,NW,315,8.9,16.3,58,0.00,,,0.00,WUHU216HW,2013-01-22 17:23:00,
2013-01-22 12:28:00,13.1,1.0,30.07,NW,315,4.0,15.9,58,0.00,,,0.00,WUHU216HW,2013-01-22 17:28:00,
2013-01-22 12:33:00,13.5,1.4,30.06,West,270,12.1,14.8,58,0.00,,,0.00,WUHU216HW,2013-01-22 17:33:00,
2013-01-22 12:38:00,13.9,1.7,30.06,NW,315,2.7,15.2,58,0.00,,,0.00,WUHU216HW,2013-01-22 17:38:00,
2013-01-22 12:43:00,13.7,0.8,30.06,NNW,338,9.4,15.2,56,0.00,,,0.00,WUHU216HW,2013-01-22 17:43:00,
2013-01-22 12:48:00,13.1,0.3,30.06,NNW,338,10.7,14.3,56,0.00,,,0.00,WUHU216HW,2013-01-22 17:48:00,
2013-01-22 12:53:00,13.1,0.6,30.06,West,270,4.7,13.4,57,0.00,,,0.00,WUHU216HW,2013-01-22 17:53:00,
2013-01-22 12:58:00,13.3,0.8,30.06,NW,315,11.0,13.6,57,0.00,,,0.00,WUHU216HW,2013-01-22 17:58:00,
2013-01-22 13:03:00,13.5,1.0,30.06,West,270,12.3,13.6,57,0.00,,,0.00,WUHU216HW,2013-01-22 18:03:00,
2013-01-22 13:08:00,13.5,0.6,30.06,NNW,338,14.1,16.3,56,0.00,,,0.00,WUHU216HW,2013-01-22 18:08:00,
2013-01-22 13:13:00,13.3,0.5,30.06,NNW,338,9.2,16.3,56,0.00,,,0.00,WUHU216HW,2013-01-22 18:13:00,
2013-01-22 13:18:00,13.3,0.8,30.06,West,270,6.9,14.1,57,0.00,,,0.00,WUHU216HW,2013-01-22 18:18:00,
2013-01-22 13:23:00,13.3,0.8,30.06,North,0,8.5,14.1,57,0.00,,,0.00,WUHU216HW,2013-01-22 18:23:00,
2013-01-22 13:28:00,13.0,0.1,30.06,West,270,8.7,14.8,56,0.00,,,0.00,WUHU216HW,2013-01-22 18:28:00,
2013-01-22 13:33:00,13.0,0.1,30.06,WSW,248,7.4,14.8,56,0.00,,,0.00,WUHU216HW,2013-01-22 18:33:00,
2013-01-22 13:38:00,13.0,0.1,30.06,WSW,248,6.3,12.5,56,0.00,,,0.00,WUHU216HW,2013-01-22 18:38:00,
2013-01-22 13:43:00,12.8,-0.1,30.06,West,270,10.5,15.9,56,0.00,,,0.00,WUHU216HW,2013-01-22 18:43:00,
2013-01-22 13:48:00,13.1,0.3,30.06,West,270,7.6,15.9,56,0.00,,,0.00,WUHU216HW,2013-01-22 18:48:00,
2013-01-22 13:53:00,13.0,0.1,30.06,NW,315,6.9,14.3,56,0.00,,,0.00,WUHU216HW,2013-01-22 18:53:00,
2013-01-22 13:58:00,13.1,0.3,30.06,West,270,9.6,14.3,56,0.00,,,0.00,WUHU216HW,2013-01-22 18:58:00,
2013-01-22 14:03:00,12.8,-0.1,30.06,NW,315,8.5,13.4,56,0.00,,,0.00,WUHU216HW,2013-01-22 19:03:00,
2013-01-22 14:08:00,13.0,0.5,30.07,WNW,293,4.3,13.4,57,0.00,,,0.00,WUHU216HW,2013-01-22 19:08:00,
2013-01-22 14:13:00,13.0,0.5,30.07,NW,315,10.7,15.9,57,0.00,,,0.00,WUHU216HW,2013-01-22 19:13:00,
2013-01-22 14:18:00,12.8,-0.1,30.07,WNW,293,6.0,15.9,56,0.00,,,0.00,WUHU216HW,2013-01-22 19:18:00,
2013-01-22 14:23:00,12.6,-0.3,30.07,North,0,9.8,12.8,56,0.00,,,0.00,WUHU216HW,2013-01-22 19:23:00,
2013-01-22 14:28:00,12.6,-0.3,30.07,NNW,338,8.5,12.5,56,0.00,,,0.00,WUHU216HW,2013-01-22 19:28:00,
2013-01-22 14:33:00,12.6,-0.3,30.07,NW,315,7.8,12.5,56,0.00,,,0.00,WUHU216HW,2013-01-22 19:33:00,
2013-01-22 14:38:00,12.6,-0.3,30.07,NNW,338,13.4,13.4,56,0.00,,,0.00,WUHU216HW,2013-01-22 19:38:00,
2013-01-22 14:43:00,12.6,-0.3,30.08,WSW,248,6.3,13.4,56,0.00,,,0.00,WUHU216HW,2013-01-22 19:43:00,
2013-01-22 14:48:00,12.6,-0.6,30.08,NW,315,8.5,13.4,55,0.00,,,0.00,WUHU216HW,2013-01-22 19:48:00,
2013-01-22 14:53:00,12.6,-0.6,30.08,NNW,338,7.6,12.3,55,0.00,,,0.00,WUHU216HW,2013-01-22 19:53:00,
2013-01-22 14:58:00,12.2,-1.0,30.08,NNW,338,11.4,14.3,55,0.00,,,0.00,WUHU216HW,2013-01-22 19:58:00,
2013-01-22 15:03:00,12.1,-1.2,30.08,NNW,338,5.1,14.3,55,0.00,,,0.00,WUHU216HW,2013-01-22 20:03:00,
2013-01-22 15:08:00,12.1,-1.2,30.08,NW,315,13.2,13.9,55,0.00,,,0.00,WUHU216HW,2013-01-22 20:08:00,
2013-01-22 15:13:00,12.1,-1.2,30.08,West,270,7.6,13.2,55,0.00,,,0.00,WUHU216HW,2013-01-22 20:13:00,
2013-01-22 15:18:00,11.9,-1.3,30.08,WSW,248,10.5,16.1,55,0.00,,,0.00,WUHU216HW,2013-01-22 20:18:00,
2013-01-22 15:23:00,11.9,-1.3,30.09,NNW,338,5.4,16.1,55,0.00,,,0.00,WUHU216HW,2013-01-22 20:23:00,
2013-01-22 15:28:00,11.9,-1.7,30.09,WNW,293,9.2,14.3,54,0.00,,,0.00,WUHU216HW,2013-01-22 20:28:00,
2013-01-22 15:33:00,11.9,-1.3,30.09,NNW,338,7.4,13.4,55,0.00,,,0.00,WUHU216HW,2013-01-22 20:33:00,
2013-01-22 15:38:00,11.9,-1.3,30.09,WNW,293,10.5,11.0,55,0.00,,,0.00,WUHU216HW,2013-01-22 20:38:00,
2013-01-22 15:43:00,12.1,-1.5,30.09,North,0,8.5,12.5,54,0.00,,,0.00,WUHU216HW,2013-01-22 20:43:00,
2013-01-22 15:48:00,11.9,-1.7,30.09,NW,315,12.1,14.1,54,0.00,,,0.00,WUHU216HW,2013-01-22 20:48:00,
2013-01-22 15:53:00,11.9,-1.3,30.09,NNW,338,8.3,15.0,55,0.00,,,0.00,WUHU216HW,2013-01-22 20:53:00,
2013-01-22 15:58:00,11.9,-1.3,30.09,WNW,293,6.9,15.0,55,0.00,,,0.00,WUHU216HW,2013-01-22 20:58:00,
2013-01-22 16:03:00,11.7,-1.4,30.09,West,270,3.1,11.6,55,0.00,,,0.00,WUHU216HW,2013-01-22 21:03:00,
2013-01-22 16:08:00,11.5,-1.6,30.10,NW,315,11.6,13.0,55,0.00,,,0.00,WUHU216HW,2013-01-22 21:08:00,
2013-01-22 16:13:00,11.5,-1.6,30.10,West,270,3.1,14.1,55,0.00,,,0.00,WUHU216HW,2013-01-22 21:13:00,
2013-01-22 16:18:00,11.3,-1.8,30.10,NW,315,8.9,14.1,55,0.00,,,0.00,WUHU216HW,2013-01-22 21:18:00,
2013-01-22 16:23:00,11.2,-2.0,30.10,West,270,6.9,13.0,55,0.00,,,0.00,WUHU216HW,2013-01-22 21:23:00,
2013-01-22 16:28:00,11.2,-2.0,30.10,WNW,293,7.6,11.9,55,0.00,,,0.00,WUHU216HW,2013-01-22 21:28:00,
2013-01-22 16:31:00,11.0,-2.2,30.10,NW,315,10.5,11.6,55,0.00,,,0.00,WUHU216HW,2013-01-22 21:31:00,
2013-01-22 16:37:00,11.0,-2.5,30.10,NW,315,4.7,12.5,54,0.00,,,0.00,WUHU216HW,2013-01-22 21:37:00,
2013-01-22 16:42:00,11.0,-2.5,30.10,NNW,338,9.2,12.5,54,0.00,,,0.00,WUHU216HW,2013-01-22 21:42:00,
2013-01-22 16:47:00,10.8,-2.7,30.10,NW,315,3.8,11.0,54,0.00,,,0.00,WUHU216HW,2013-01-22 21:47:00,
2013-01-22 16:52:00,10.8,-2.7,30.10,NW,315,11.0,11.2,54,0.00,,,0.00,WUHU216HW,2013-01-22 21:52:00,
2013-01-22 16:57:00,10.6,-2.8,30.11,NW,315,9.4,11.2,54,0.00,,,0.00,WUHU216HW,2013-01-22 21:57:00,
2013-01-22 17:02:00,10.6,-2.4,30.11,NNW,338,8.3,12.8,55,0.00,,,0.00,WUHU216HW,2013-01-22 22:02:00,
2013-01-22 17:07:00,10.6,-2.8,30.11,West,270,10.3,14.3,54,0.00,,,0.00,WUHU216HW,2013-01-22 22:07:00,
2013-01-22 17:12:00,10.4,-3.0,30.12,NNW,338,8.5,14.3,54,0.00,,,0.00,WUHU216HW,2013-01-22 22:12:00,
2013-01-22 17:17:00,10.4,-3.0,30.12,NNW,338,8.7,11.9,54,0.00,,,0.00,WUHU216HW,2013-01-22 22:17:00,
2013-01-22 17:22:00,10.4,-3.0,30.12,NW,315,9.2,13.0,54,0.00,,,0.00,WUHU216HW,2013-01-22 22:22:00,
2013-01-22 17:27:00,10.4,-3.0,30.12,NNW,338,8.5,13.0,54,0.00,,,0.00,WUHU216HW,2013-01-22 22:27:00,
2013-01-22 17:32:00,10.4,-3.0,30.12,NNW,338,11.0,12.1,54,0.00,,,0.00,WUHU216HW,2013-01-22 22:32:00,
2013-01-22 17:37:00,10.3,-3.1,30.12,NNW,338,9.4,13.9,54,0.00,,,0.00,WUHU216HW,2013-01-22 22:37:00,
2013-01-22 17:42:00,10.3,-3.1,30.12,NW,315,11.6,14.3,54,0.00,,,0.00,WUHU216HW,2013-01-22 22:42:00,
2013-01-22 17:47:00,10.1,-3.3,30.12,NW,315,7.8,14.3,54,0.00,,,0.00,WUHU216HW,2013-01-22 22:47:00,
2013-01-22 17:52:00,10.1,-3.3,30.12,NW,315,7.8,11.6,54,0.00,,,0.00,WUHU216HW,2013-01-22 22:52:00,
2013-01-22 18:00:00,9.9,-3.5,30.13,NW,315,7.6,7.6,54,0.00,,,0.00,WUHU216HW,2013-01-22 23:00:00,
2013-01-22 18:05:00,9.7,-3.7,30.13,North,0,11.2,11.4,54,0.00,,,0.00,WUHU216HW,2013-01-22 23:05:00,
2013-01-22 18:10:00,9.7,-3.7,30.13,NNW,338,10.3,12.1,54,0.00,,,0.00,WUHU216HW,2013-01-22 23:10:00,
2013-01-22 18:15:00,9.7,-3.7,30.13,SW,225,6.0,12.1,54,0.00,,,0.00,WUHU216HW,2013-01-22 23:15:00,
2013-01-22 18:20:00,9.7,-3.7,30.13,SW,225,6.0,8.5,54,0.00,,,0.00,WUHU216HW,2013-01-22 23:20:00,
2013-01-22 19:00:00,9.0,-4.4,30.14,NW,315,8.5,8.5,54,0.00,,,0.00,WUHU216HW,2013-01-23 00:00:00,
2013-01-22 19:05:00,9.0,-4.4,30.14,NW,315,6.3,10.1,54,0.00,,,0.00,WUHU216HW,2013-01-23 00:05:00,
2013-01-22 19:10:00,9.0,-4.4,30.14,NW,315,7.2,10.1,54,0.00,,,0.00,WUHU216HW,2013-01-23 00:10:00,
2013-01-22 20:00:00,8.3,-4.3,30.15,NNW,338,9.2,9.2,56,0.00,,,0.00,WUHU216HW,2013-01-23 01:00:00,
2013-01-22 20:05:00,8.3,-4.8,30.15,NW,315,8.9,14.1,55,0.00,,,0.00,WUHU216HW,2013-01-23 01:05:00,
2013-01-22 20:10:00,8.3,-4.8,30.15,NW,315,8.1,14.1,55,0.00,,,0.00,WUHU216HW,2013-01-23 01:10:00,
2013-01-22 20:15:00,8.1,-4.8,30.15,NNW,338,6.9,13.6,55,0.00,,,0.00,WUHU216HW,2013-01-23 01:15:00,
2013-01-22 20:20:00,7.9,-5.0,30.16,NNW,338,11.6,13.6,55,0.00,,,0.00,WUHU216HW,2013-01-23 01:20:00,
2013-01-22 20:25:00,7.9,-4.7,30.16,NW,315,10.5,14.3,56,0.00,,,0.00,WUHU216HW,2013-01-23 01:25:00,
2013-01-22 20:30:00,7.9,-4.7,30.16,NW,315,6.9,14.3,56,0.00,,,0.00,WUHU216HW,2013-01-23 01:30:00,
2013-01-22 20:35:00,7.7,-4.9,30.16,NW,315,12.1,13.6,56,0.00,,,0.00,WUHU216HW,2013-01-23 01:35:00,
2013-01-22 20:40:00,7.7,-4.9,30.16,North,0,7.6,13.6,56,0.00,,,0.00,WUHU216HW,2013-01-23 01:40:00,
2013-01-22 20:45:00,7.7,-4.9,30.16,NW,315,9.6,12.1,56,0.00,,,0.00,WUHU216HW,2013-01-23 01:45:00,
2013-01-22 20:50:00,7.6,-5.0,30.16,NW,315,7.6,15.0,56,0.00,,,0.00,WUHU216HW,2013-01-23 01:50:00,
2013-01-22 20:55:00,7.6,-5.0,30.16,NNW,338,5.8,15.0,56,0.00,,,0.00,WUHU216HW,2013-01-23 01:55:00,
2013-01-22 21:00:00,7.6,-5.0,30.16,WSW,248,6.3,13.4,56,0.00,,,0.00,WUHU216HW,2013-01-23 02:00:00,
2013-01-22 21:05:00,7.6,-5.0,30.16,North,0,8.5,13.4,56,0.00,,,0.00,WUHU216HW,2013-01-23 02:05:00,
2013-01-22 21:10:00,7.6,-5.0,30.16,West,270,5.4,11.9,56,0.00,,,0.00,WUHU216HW,2013-01-23 02:10:00,
2013-01-22 21:15:00,7.6,-5.0,30.16,North,0,5.6,13.2,56,0.00,,,0.00,WUHU216HW,2013-01-23 02:15:00,
2013-01-22 21:20:00,7.4,-5.1,30.16,NNW,338,6.9,13.2,56,0.00,,,0.00,WUHU216HW,2013-01-23 02:20:00,
2013-01-22 21:25:00,7.4,-5.1,30.16,NNW,338,9.6,14.5,56,0.00,,,0.00,WUHU216HW,2013-01-23 02:25:00,
2013-01-22 21:30:00,7.4,-5.1,30.16,NW,315,5.6,14.5,56,0.00,,,0.00,WUHU216HW,2013-01-23 02:30:00,
2013-01-22 21:35:00,7.2,-4.9,30.16,NW,315,9.6,12.3,57,0.00,,,0.00,WUHU216HW,2013-01-23 02:35:00,
2013-01-22 21:40:00,7.2,-4.9,30.16,NNW,338,10.3,10.5,57,0.00,,,0.00,WUHU216HW,2013-01-23 02:40:00,
2013-01-22 21:45:00,7.2,-4.9,30.16,NNW,338,6.3,13.4,57,0.00,,,0.00,WUHU216HW,2013-01-23 02:45:00,
2013-01-22 21:50:00,7.2,-4.9,30.16,NW,315,4.7,13.4,57,0.00,,,0.00,WUHU216HW,2013-01-23 02:50:00,
2013-01-22 21:55:00,7.0,-5.1,30.16,NNW,338,9.6,11.4,57,0.00,,,0.00,WUHU216HW,2013-01-23 02:55:00,
2013-01-22 22:00:00,7.0,-5.1,30.16,NW,315,5.1,11.4,57,0.00,,,0.00,WUHU216HW,2013-01-23 03:00:00,
2013-01-22 22:05:00,7.0,-5.1,30.16,SW,225,6.5,8.7,57,0.00,,,0.00,WUHU216HW,2013-01-23 03:05:00,
2013-01-22 22:10:00,7.0,-4.8,30.16,NW,315,6.3,9.6,58,0.00,,,0.00,WUHU216HW,2013-01-23 03:10:00,
2013-01-22 22:15:00,7.0,-4.8,30.16,NNW,338,5.4,11.2,58,0.00,,,0.00,WUHU216HW,2013-01-23 03:15:00,
2013-01-22 22:20:00,7.0,-4.8,30.16,NNW,338,7.6,11.9,58,0.00,,,0.00,WUHU216HW,2013-01-23 03:20:00,
2013-01-22 22:25:00,7.0,-4.8,30.16,West,270,9.2,11.9,58,0.00,,,0.00,WUHU216HW,2013-01-23 03:25:00,
2013-01-22 22:30:00,7.0,-4.8,30.16,NW,315,9.8,10.5,58,0.00,,,0.00,WUHU216HW,2013-01-23 03:30:00,
2013-01-22 22:35:00,7.0,-4.8,30.16,NW,315,5.6,9.8,58,0.00,,,0.00,WUHU216HW,2013-01-23 03:35:00,
2013-01-22 22:40:00,6.8,-4.8,30.16,NNW,338,7.2,9.8,58,0.00,,,0.00,WUHU216HW,2013-01-23 03:40:00,
2013-01-22 22:45:00,6.8,-4.5,30.16,NNW,338,4.7,9.4,59,0.00,,,0.00,WUHU216HW,2013-01-23 03:45:00,
2013-01-22 22:50:00,6.8,-4.5,30.16,North,0,5.4,10.5,59,0.00,,,0.00,WUHU216HW,2013-01-23 03:50:00,
2013-01-22 22:55:00,6.8,-4.5,30.16,NNW,338,5.4,10.5,59,0.00,,,0.00,WUHU216HW,2013-01-23 03:55:00,
2013-01-22 23:00:00,6.8,-4.5,30.16,NNW,338,11.4,12.5,59,0.00,,,0.00,WUHU216HW,2013-01-23 04:00:00,
2013-01-22 23:05:00,6.8,-4.5,30.16,NNW,338,8.5,12.5,59,0.00,,,0.00,WUHU216HW,2013-01-23 04:05:00,
2013-01-22 23:10:00,6.8,-4.5,30.16,NW,315,3.8,9.6,59,0.00,,,0.00,WUHU216HW,2013-01-23 04:10:00,
2013-01-22 23:15:00,6.8,-4.5,30.16,North,0,6.9,10.3,59,0.00,,,0.00,WUHU216HW,2013-01-23 04:15:00,
2013-01-22 23:20:00,6.8,-4.5,30.16,NNW,338,7.6,10.5,59,0.00,,,0.00,WUHU216HW,2013-01-23 04:20:00,
2013-01-22 23:25:00,6.8,-4.5,30.16,NNW,338,4.7,10.5,59,0.00,,,0.00,WUHU216HW,2013-01-23 04:25:00,
2013-01-22 23:30:00,6.8,-4.5,30.16,West,270,7.6,8.5,59,0.00,,,0.00,WUHU216HW,2013-01-23 04:30:00,
2013-01-22 23:35:00,6.8,-4.5,30.15,NW,315,4.7,7.6,59,0.00,,,0.00,WUHU216HW,2013-01-23 04:35:00,
2013-01-22 23:40:00,6.8,-4.5,30.15,NNW,338,4.9,7.6,59,0.00,,,0.00,WUHU216HW,2013-01-23 04:40:00,
2013-01-22 23:45:00,6.8,-4.1,30.15,NNW,338,1.8,7.6,60,0.00,,,0.00,WUHU216HW,2013-01-23 04:45:00,
2013-01-22 23:50:00,6.7,-4.3,30.15,WSW,248,4.0,7.4,60,0.00,,,0.00,WUHU216HW,2013-01-23 04:50:00,
2013-01-22 23:55:00,6.7,-4.3,30.15,NW,315,5.6,7.8,60,0.00,,,0.00,WUHU216HW,2013-01-23 04:55:00,